Lid_Strength_Index
3 2 1 1 1 0 0 -0 -0 -1 -0 0 0 0 1 0 -0 -1 -2 -2 -2 -2 -2 -1 -1 -1 -1 -1 -1 -1 -0 -0 -1 1 0 0 -0 -1 -1 -1 -1 -1 -1
3 2 2 1 2 1 0 -0 -0 -0 -0 -0 -0 -1 0 -0 -0 -1 -2 -2 -2 -2 -2 -1 -1 -1 -1 -1 -1 -1 1 0 -1 1 2 3 1 0 -0 -1 -1 -1 -1
4 3 3 2 2 1 1 0 -0 -0 -1 -1 -1 -1 -1 -1 -0 -0 -0 -1 -1 -2 -2 -2 -2 -2 -1 -0 -1 -1 -1 1 -0 -1 1 4 4 2 0 -0 -0 -1 -1
3 3 3 2 2 1 0 -0 -0 -0 -1 -1 -1 -0 1 1 0 0 -0 -1 -2 -1 -2 -2 -2 -2 -1 -0 -1 -1 -1 -0 1 -0 -0 -0 1 4 3 1 0 -0 -0
4 4 3 2 2 1 1 0 -0 -0 -1 -1 -1 0 1 1 0 1 0 -1 -1 -2 -1 -2 -2 -1 -1 -2 -1 -1 -1 -1 0 0 0 -0 0 -0 2 3 2 0 -0
3 3 2 2 2 1 0 0 0 0 -0 -0 -0 -0 -0 1 1 1 1 0 -0 -1 -2 -1 -2 -2 -2 -1 -1 -2 -1 -1 -1 0 0 1 3 2 2 2 1 2 0
4 3 4 2 2 2 1 1 1 1 0 -0 -0 -0 -0 -0 0 -0 0 1 0 -0 -0 -2 -1 -1 -2 -2 -2 -1 -1 -1 -0 -1 1 -1 1 0 1 2 2 2 1
4 3 3 3 3 2 1 1 1 1 0 0 -0 -0 -0 0 0 -0 0 0 1 0 -1 -1 -1 -1 -1 -2 -2 -1 -1 -1 -1 -1 -1 0 0 0 0 1 2 2 2
4 4 3 2 3 2 1 1 1 1 0 0 0 0 -0 -0 -0 -1 -1 -0 -0 -0 -1 -1 -1 -1 -2 -2 -2 -0 -0 -1 -1 -1 -1 -0 0 -0 -0 -0 0 2 4
5 5 4 3 2 2 1 1 0 1 0 0 0 0 -0 -0 -0 -1 -1 -1 -0 -1 -0 -1 -1 -1 -1 -1 -1 -0 -1 -1 -0 -0 -0 -0 -0 -1 -0 -0 -0 0 2
6 5 6 4 3 3 2 1 1 1 1 0 0 0 0 -0 -0 -0 -1 -1 -1 -1 -1 -1 -1 -1 -1 -1 -1 -1 -1 -0 -1 -1 -1 -0 -1 0 -0 -0 -0 0 0
10 8 7 6 6 5 3 2 1 1 0 0 0 0 -0 -0 -0 0 -0 -1 -1 -1 -1 -1 -1 -1 -1 -1 -0 -0 -1 -0 0 0 -0 -0 -0 -0 -0 0 -1 0 -0
10 10 8 9 9 6 4 3 2 2 1 0 0 0 0 0 0 -0 -0 -1 -1 -1 -1 -1 -0 -1 -0 -0 -1 -0 -0 -0 -0 -0 -0 -0 -0 0 0 -0 0 0 0
10 10 11 9 9 8 7 5 4 1 1 1 0 1 0 0 0 -0 -0 -0 -0 -0 -0 -1 -1 -1 -1 -1 -0 -0 -0 -0 -0 -0 -0 -0 -0 0 0 0 -0 0 1
10 10 10 10 9 8 8 8 6 4 2 1 1 1 -0 -0 0 -0 -0 -0 -0 -0 -0 -0 -0 -1 -0 -0 -0 -0 -0 -0 0 -0 -0 -0 -0 1 0 0 0 -0 1
10 9 9 9 9 9 8 8 7 5 3 3 1 1 0 0 0 -0 -0 -0 -0 -0 -0 -0 -0 -0 -0 2 3 0 -0 -0 0 0 -0 -0 0 0 2 3 3 1 1
8 8 7 7 7 7 7 7 6 5 5 4 3 2 1 1 1 0 0 0 0 0 0 0 0 0 -0 3 3 3 -0 0 -0 -0 0 0 -0 0 -0 2 2 1 2
5 6 6 7 7 6 6 5 5 5 6 5 6 5 3 1 1 1 1 1 1 1 0 0 0 0 0 4 5 3 -0 -0 -0 -0 -0 -0 -0 -0 -0 -0 0 0 -0
4 4 4 4 4 5 5 5 5 5 5 5 5 5 5 4 2 2 1 0 0 1 1 0 0 0 0 6 6 4 -0 0 0 -0 -0 -0 -0 2 4 0 1 0 0
4 4 3 3 3 2 2 4 5 5 5 6 5 5 5 4 1 1 3 1 0 1 0 1 0 2 0 4 8 5 0 1 1 0 -0 3 0 4 6 0 1 2 1
4 4 4 3 3 2 2 2 2 2 4 4 4 4 4 4 3 1 0 1 1 1 1 1 0 0 0 0 8 9 0 1 1 1 1 0 5 6 7 7 0 1 0
5 5 5 5 4 3 3 3 2 1 1 1 3 3 3 3 5 2 1 0 0 1 1 1 1 1 0 4 6 9 8 2 1 1 0 0 7 7 6 5 4 6 5
4 4 5 5 4 4 4 4 3 2 2 2 2 3 4 3 2 3 2 2 1 2 2 2 2 2 1 0 7 9 9 8 2 0 1 8 9 11 9 8 7 7 1
3 3 3 4 4 4 4 4 4 3 3 3 3 3 3 4 4 4 5 4 4 2 1 2 2 2 1 1 1 0 4 7 5 3 1 2 4 7 4 3 5 2 0
3 3 4 4 3 3 3 3 3 4 5 4 4 4 3 2 2 2 3 4 3 3 2 1 1 2 2 1 6 8 3 0 2 2 1 1 1 1 1 1 1 1 1
3 4 3 4 3 3 3 3 3 4 5 5 5 5 5 4 3 2 2 6 7 8 10 10 6 2 6 9 10 11 11 12 12 2 2 2 2 2 2 2 1 1 2